TimeEST,TemperatureF,Dew PointF,Humidity,Sea Level PressureIn,VisibilityMPH,Wind Direction,Wind SpeedMPH,Gust SpeedMPH,PrecipitationIn,Events,Conditions,WindDirDegrees,DateUTC
12:15 AM,62.6,56.5,80,29.64,10.0,SSE,15.0,23.0,N/A,,Clear,160,2013-01-30 05:15:00
12:35 AM,59.9,55.0,84,29.63,10.0,SSE,15.0,-,N/A,,Clear,150,2013-01-30 05:35:00
12:55 AM,59.0,54.7,86,29.61,10.0,SSE,12.7,18.4,N/A,,Clear,150,2013-01-30 05:55:00
1:35 AM,59.5,54.9,84,29.58,10.0,SSE,16.1,20.7,N/A,,Clear,150,2013-01-30 06:35:00
1:55 AM,59.7,54.7,83,29.58,10.0,SSE,13.8,-,N/A,,Clear,150,2013-01-30 06:55:00
2:15 AM,59.2,54.5,84,29.56,10.0,SSE,12.7,-,N/A,,Clear,150,2013-01-30 07:15:00
2:35 AM,59.2,54.1,83,29.55,10.0,SSE,16.1,20.7,N/A,,Clear,150,2013-01-30 07:35:00
2:55 AM,59.2,54.0,83,29.54,10.0,SSE,13.8,18.4,N/A,,Clear,160,2013-01-30 07:55:00
3:15 AM,59.0,53.8,83,29.52,10.0,SSE,13.8,18.4,N/A,,Clear,160,2013-01-30 08:15:00
3:55 AM,59.2,53.6,82,29.49,10.0,SSE,18.4,23.0,N/A,,Clear,160,2013-01-30 08:55:00
4:15 AM,59.2,53.6,82,29.48,10.0,SSE,13.8,20.7,N/A,,Mostly Cloudy,160,2013-01-30 09:15:00
4:35 AM,59.4,53.2,80,29.47,10.0,SSE,17.3,23.0,N/A,,Overcast,160,2013-01-30 09:35:00
4:55 AM,59.2,53.1,80,29.45,10.0,SSE,17.3,23.0,N/A,,Overcast,150,2013-01-30 09:55:00
5:15 AM,59.7,53.1,79,29.43,10.0,SSE,17.3,24.2,N/A,,Overcast,160,2013-01-30 10:15:00
5:35 AM,60.1,53.4,79,29.42,10.0,SSE,16.1,20.7,N/A,,Overcast,160,2013-01-30 10:35:00
5:55 AM,59.9,53.4,79,29.40,10.0,SSE,16.1,21.9,N/A,,Overcast,150,2013-01-30 10:55:00
6:15 AM,59.5,53.6,81,29.39,10.0,SSE,13.8,20.7,N/A,Rain,Light Rain,150,2013-01-30 11:15:00
6:35 AM,59.5,53.8,81,29.36,10.0,SSE,15.0,-,N/A,,Overcast,150,2013-01-30 11:35:00
6:55 AM,60.8,53.8,78,29.33,10.0,SE,21.9,28.8,N/A,Rain,Light Rain,140,2013-01-30 11:55:00
7:15 AM,58.5,56.8,94,29.45,2.0,SW,23.0,36.8,0.18,Rain,Heavy Rain,220,2013-01-30 12:15:00
7:25 AM,59.0,57.2,94,29.47,7.0,West,13.8,28.8,N/A,Rain,Rain,270,2013-01-30 12:25:00
7:47 AM,55.4,53.6,94,29.49,7.0,West,12.7,21.9,N/A,Rain,Light Rain,280,2013-01-30 12:47:00
8:50 AM,51.8,51.8,100,29.49,5.0,SE,5.8,-,N/A,Rain,Rain,140,2013-01-30 13:50:00
9:50 AM,53.6,51.8,94,29.48,7.0,SSE,15.0,-,N/A,Rain,Rain,160,2013-01-30 14:50:00
10:55 AM,53.6,51.8,94,29.44,10.0,South,13.8,-,N/A,,Overcast,170,2013-01-30 15:55:00
11:50 AM,55.4,51.8,88,29.39,10.0,SSE,15.0,25.3,N/A,,Overcast,160,2013-01-30 16:50:00
12:50 PM,55.4,51.8,88,29.40,10.0,South,16.1,23.0,N/A,,Overcast,180,2013-01-30 17:50:00
1:50 PM,55.4,51.8,88,29.38,10.0,South,19.6,27.6,N/A,,Overcast,190,2013-01-30 18:50:00
2:50 PM,55.4,51.8,88,29.34,10.0,South,15.0,23.0,N/A,,Overcast,180,2013-01-30 19:50:00
3:50 PM,55.4,51.8,88,29.37,10.0,South,18.4,-,N/A,,Overcast,190,2013-01-30 20:50:00
4:50 PM,55.4,51.8,88,29.31,10.0,South,16.1,-,N/A,,Overcast,180,2013-01-30 21:50:00
5:50 PM,55.4,50.0,82,29.29,10.0,South,16.1,23.0,N/A,,Overcast,190,2013-01-30 22:50:00
8:15 PM,51.4,46.0,82,29.29,10.0,West,36.8,61.0,N/A,Rain,Light Rain,270,2013-01-31 01:15:00
8:35 PM,40.1,36.9,88,29.31,5.0,West,18.4,31.1,0.05,Rain,Rain,270,2013-01-31 01:35:00
8:55 PM,38.1,35.1,89,29.35,4.0,West,19.6,33.4,0.07,Rain,Rain,270,2013-01-31 01:55:00
9:15 PM,37.9,35.2,90,29.35,10.0,West,16.1,25.3,0.01,Rain,Light Rain,260,2013-01-31 02:15:00
9:35 PM,38.3,35.2,89,29.36,10.0,West,13.8,19.6,0.02,,Overcast,260,2013-01-31 02:35:00
9:55 PM,37.8,33.3,84,29.36,10.0,West,17.3,26.5,0.02,Rain,Light Rain,260,2013-01-31 02:55:00
10:15 PM,37.4,32.0,81,29.38,10.0,West,15.0,21.9,N/A,,Light Drizzle,260,2013-01-31 03:15:00
10:35 PM,35.8,31.5,84,29.40,10.0,West,21.9,31.1,N/A,Rain,Light Rain,260,2013-01-31 03:35:00
10:55 PM,34.3,30.7,87,29.42,7.0,West,16.1,24.2,N/A,Snow,Light Snow,260,2013-01-31 03:55:00
11:15 PM,34.9,28.8,78,29.45,10.0,WSW,19.6,33.4,N/A,,Overcast,250,2013-01-31 04:15:00
11:35 PM,34.2,27.3,76,29.45,10.0,WSW,17.3,26.5,N/A,,Overcast,250,2013-01-31 04:35:00
11:55 PM,33.8,27.5,78,29.46,10.0,WSW,20.7,27.6,N/A,,Overcast,250,2013-01-31 04:55:00